Location: Janeiro
(34.9957°N, 76.7652°W)
Time: 09:15:45
(UTC+00:00)

IRIDIUM 114 - Pass Details

Date: 14 December 2019
Orbit: 776 x 779 km, 86.4° (Epoch: 21 January)

Event Time Altitude Azimuth Distance (km) Brightness Sun altitude
Rises 23:19:04 0° 168° (SSE) 3,245 7.6 -16.4°
Reaches altitude 10° 23:21:27 10° 163° (SSE) 2,322 6.8 -16.9°
Maximum altitude 23:26:29 53° 88° (E) 958 4.4 -17.9°
Drops below altitude 10° 23:31:33 10° 13° (NNE) 2,336 6.5 -18.9°
Enters shadow 23:31:49 - 12° (NNE) 2,434 6.6 -18.9°
